H1 CPF 2 NER 2022 11 30 9 334 01 glonass133 H2 1403201 9133 40001 2022 11 30 0 0 0 2022 12 3 23 45 0 900 1 1 0 0 0 1 H9 10 0 59913 0.00000 0 11217294.518 -993727.817 22897194.026 10 0 59913 900.00000 0 10374705.008 1728093.430 23245757.886 10 0 59913 1800.00000 0 9737617.434 4521020.504 23143237.815 10 0 59913 2700.00000 0 9320349.768 7314824.626 22591502.775 10 0 59913 3600.00000 0 9124591.295 10038179.296 21601134.648 10 0 59913 4500.00000 0 9139410.629 12621397.621 20191233.816 10 0 59913 5400.00000 0 9341810.495 14999111.244 18389059.809 10 0 59913 6300.00000 0 9697806.530 17112780.049 16229512.865 10 0 59913 7200.00000 0 10163985.320 18912928.317 13754465.394 10 0 59913 8100.00000 0 10689476.418 20361014.014 11011955.348 10 0 59913 9000.00000 0 11218255.413 21430852.913 8055256.398 10 0 59913 9900.00000 0 11691680.620 22109537.525 4941842.660 10 0 59913 10800.00000 0 12051155.683 22397812.053 1732268.066 10 0 59913 11700.00000 0 12240804.597 22309887.498 -1511017.477 10 0 59913 12600.00000 0 12210044.781 21872704.738 -4724891.277 10 0 59913 13500.00000 0 11915947.895 21124677.062 -7846795.659 10 0 59913 14400.00000 0 11325287.010 20113965.780 -10815965.169 10 0 59913 15300.00000 0 10416182.087 18896362.544 -13574618.087 10 0 59913 16200.00000 0 9179272.856 17532868.724 -16069088.080 10 0 59913 17100.00000 0 7618368.408 16087074.942 -18250873.245 10 0 59913 18000.00000 0 5750545.200 14622452.156 -20077581.592 10 0 59913 18900.00000 0 3605688.608 13199669.073 -21513754.507 10 0 59913 19800.00000 0 1225496.697 11874049.148 -22531552.439 10 0 59913 20700.00000 0 -1338012.399 10693274.083 -23111289.935 10 0 59913 21600.00000 0 -4024427.422 9695429.884 -23241810.367 10 0 59913 22500.00000 0 -6767225.164 8907476.693 -22920693.891 10 0 59913 23400.00000 0 -9496311.091 8344205.573 -22154295.381 10 0 59913 24300.00000 0 -12140714.089 8007724.659 -20957612.360 10 0 59913 25200.00000 0 -14631323.861 7887494.860 -19353986.045 10 0 59913 26100.00000 0 -16903557.709 7960912.218 -17374641.750 10 0 59913 27000.00000 0 -18899846.669 8194411.155 -15058077.799 10 0 59913 27900.00000 0 -20571838.522 8545041.111 -12449314.878 10 0 59913 28800.00000 0 -21882226.889 8962449.343 -9599020.425 10 0 59913 29700.00000 0 -22806131.344 9391185.701 -6562524.954 10 0 59913 30600.00000 0 -23331972.096 9773231.807 -3398749.296 10 0 59913 31500.00000 0 -23461803.779 10050647.699 -169063.520 10 0 59913 32400.00000 0 -23211095.510 10168224.174 3063900.438 10 0 59913 33300.00000 0 -22607967.364 10076028.826 6237459.533 10 0 59913 34200.00000 0 -21691916.045 9731738.342 9290090.348 10 0 59913 35100.00000 0 -20512083.752 9102658.572 12162616.598 10 0 59913 36000.00000 0 -19125143.127 8167346.980 14799350.694 10 0 59913 36900.00000 0 -17592887.020 6916768.718 17149167.625 10 0 59913 37800.00000 0 -15979623.891 5354936.983 19166490.886 10 0 59913 38700.00000 0 -14349487.511 3499009.677 20812171.965 10 0 59913 39600.00000 0 -12763773.042 1378837.018 22054246.860 10 0 59913 40500.00000 0 -11278410.312 -964022.673 22868555.515 10 0 59913 41400.00000 0 -9941679.266 -3477779.766 23239212.510 10 0 59913 42300.00000 0 -8792262.593 -6102323.018 23158919.968 10 0 59913 43200.00000 0 -7857716.517 -8771484.622 22629116.463 10 0 59913 44100.00000 0 -7153423.451 -11415568.140 21659958.555 10 0 59913 45000.00000 0 -6682070.354 -13964035.635 20270134.562 10 0 59913 45900.00000 0 -6433674.759 -16348243.382 18486513.208 10 0 59913 46800.00000 0 -6386157.615 -18504113.090 16343632.842 10 0 59913 47700.00000 0 -6506439.195 -20374627.589 13883040.083 10 0 59913 48600.00000 0 -6752012.154 -21912046.871 11152489.715 10 0 59913 49500.00000 0 -7072925.509 -23079751.592 8205020.601 10 0 59913 50400.00000 0 -7414095.625 -23853636.296 5097925.213 10 0 59913 51300.00000 0 -7717846.061 -24222993.466 1891632.755 10 0 59913 52200.00000 0 -7926567.999 -24190850.788 -1351472.078 10 0 59913 53100.00000 0 -7985387.552 -23773747.172 -4568270.912 10 0 59913 54000.00000 0 -7844725.637 -23000956.992 -7696149.380 10 0 59913 54900.00000 0 -7462640.538 -21913195.493 -10674225.455 10 0 59913 55800.00000 0 -6806852.509 -20560860.534 -13444543.324 10 0 59913 56700.00000 0 -5856363.345 -19001885.555 -15953208.561 10 0 59913 57600.00000 0 -4602601.217 -17299295.094 -18151441.758 10 0 59913 58500.00000 0 -3050041.414 -15518566.658 -19996529.563 10 0 59913 59400.00000 0 -1216275.999 -13724910.630 -21452654.547 10 0 59913 60300.00000 0 868471.246 -11980582.928 -22491588.004 10 0 59913 61200.00000 0 3162364.674 -10342343.360 -23093232.643 10 0 59913 62100.00000 0 5613469.129 -8859165.911 -23246005.404 10 0 59913 63000.00000 0 8161691.961 -7570296.205 -22947053.737 10 0 59913 63900.00000 0 10741073.897 -6503736.426 -22202301.957 10 0 59913 64800.00000 0 13282333.710 -5675219.767 -21026327.511 10 0 59913 65700.00000 0 15715561.133 -5087715.751 -19442070.143 10 0 59913 66600.00000 0 17972946.402 -4731485.546 -17480380.016 10 0 59913 67500.00000 0 19991433.435 -4584683.278 -15179413.838 10 0 59913 68400.00000 0 21715186.910 -4614476.600 -12583890.754 10 0 59913 69300.00000 0 23097771.170 -4778638.106 -9744222.501 10 0 59913 70200.00000 0 24103950.975 -5027539.560 -6715534.638 10 0 59913 71100.00000 0 24711039.867 -5306464.104 -3556597.671 10 0 59913 72000.00000 0 24909740.615 -5558138.433 -328688.845 10 0 59913 72900.00000 0 24704443.529 -5725377.713 2905593.495 10 0 59913 73800.00000 0 24112970.883 -5753731.452 6083540.076 10 0 59913 74700.00000 0 23165778.813 -5594018.511 9143542.003 10 0 59913 75600.00000 0 21904650.578 -5204644.212 12026279.977 10 0 59913 76500.00000 0 20380936.164 -4553601.628 14675868.688 10 0 59913 77400.00000 0 18653411.965 -3620072.416 17040934.537 10 0 59913 78300.00000 0 16785849.910 -2395559.274 19075606.383 10 0 59913 79200.00000 0 14844397.232 -884501.534 20740400.669 10 0 59913 80100.00000 0 12894875.820 895653.069 22002984.327 10 0 59913 81000.00000 0 11000113.220 2914924.929 22838801.208 10 0 59913 81900.00000 0 9217415.864 5131809.293 23231550.274 10 0 59913 82800.00000 0 7596289.306 7494772.954 23173506.363 10 0 59913 83700.00000 0 6176499.913 9944180.494 22665677.209 10 0 59913 84600.00000 0 4986558.377 12414571.733 21717793.197 10 0 59913 85500.00000 0 4042688.153 14837197.127 20348129.327 10 0 59914 0.00000 0 3348321.761 17142706.684 18583162.064 10 0 59914 900.00000 0 2894145.732 19263882.540 16457065.582 10 0 59914 1800.00000 0 2658693.212 21138298.592 14011058.572 10 0 59914 2700.00000 0 2609458.125 22710800.360 11292610.103 10 0 59914 3600.00000 0 2704484.894 23935697.952 8354521.457 10 0 59914 4500.00000 0 2894366.048 24778580.935 5253900.510 10 0 59914 5400.00000 0 3124562.903 25217678.058 2051048.667 10 0 59914 6300.00000 0 3337950.415 25244704.003 -1191717.713 10 0 59914 7200.00000 0 3477477.438 24865156.913 -4411287.672 10 0 59914 8100.00000 0 3488828.430 24098053.805 -7544993.115 10 0 59914 9000.00000 0 3322972.431 22975114.921 -10531838.209 10 0 59914 9900.00000 0 2938489.878 21539431.595 -13313695.534 10 0 59914 10800.00000 0 2303577.314 19843674.218 -15836444.746 10 0 59914 11700.00000 0 1397643.924 17947916.374 -18051030.782 10 0 59914 12600.00000 0 212431.332 15917167.428 -19914420.475 10 0 59914 13500.00000 0 -1247391.454 13818717.894 -21390438.847 10 0 59914 14400.00000 0 -2964183.710 11719409.435 -22450469.020 10 0 59914 15300.00000 0 -4907841.653 9682944.190 -23074002.598 10 0 59914 16200.00000 0 -7036839.100 7767345.862 -23249030.521 10 0 59914 17100.00000 0 -9299756.963 6022678.182 -22972267.645 10 0 59914 18000.00000 0 -11637237.792 4489115.195 -22249207.450 10 0 59914 18900.00000 0 -13984284.116 3195442.660 -21094006.622 10 0 59914 19800.00000 0 -16272805.060 2158051.574 -19529202.290 10 0 59914 20700.00000 0 -18434305.383 1380464.175 -17585267.905 10 0 59914 21600.00000 0 -20402605.360 853410.385 -15300016.603 10 0 59914 22500.00000 0 -22116478.646 555449.693 -12717863.716 10 0 59914 23400.00000 0 -23522098.615 454110.746 -9888962.783 10 0 59914 24300.00000 0 -24575191.755 507499.324 -6868231.730 10 0 59914 25200.00000 0 -25242808.788 666305.858 -3714287.984 10 0 59914 26100.00000 0 -25504640.113 876127.055 -488313.145 10 0 59914 27000.00000 0 -25353821.183 1080003.106 2747130.868 10 0 59914 27900.00000 0 -24797194.641 1221063.019 5929311.384 10 0 59914 28800.00000 0 -23855018.698 1245166.212 8996536.835 10 0 59914 29700.00000 0 -22560134.267 1103428.770 11889347.651 10 0 59914 30600.00000 0 -20956625.844 754527.636 14551663.418 10 0 59914 31500.00000 0 -19098032.091 166685.446 16931864.398 10 0 59914 32400.00000 0 -17045180.665 -680747.946 18983786.997 10 0 59914 33300.00000 0 -14863737.185 -1796184.402 20667614.483 10 0 59914 34200.00000 0 -12621570.040 -3175204.421 21950646.213 10 0 59914 35100.00000 0 -10386040.070 -4800508.147 22807931.031 10 0 59914 36000.00000 0 -8221327.177 -6642414.040 23222752.933 10 0 59914 36900.00000 0 -6185904.393 -8659886.097 23186959.711 10 0 59914 37800.00000 0 -4330263.761 -10802048.559 22701128.096 10 0 59914 38700.00000 0 -2694988.058 -13010126.867 21774561.761 10 0 59914 39600.00000 0 -1309248.252 -15219735.538 20425121.501 10 0 59914 40500.00000 0 -189788.997 -17363419.077 18678889.946 10 0 59914 41400.00000 0 659555.697 -19373341.023 16569676.185 10 0 59914 42300.00000 0 1247796.424 -21184009.428 14138368.838 10 0 59914 43200.00000 0 1596174.892 -22734925.106 11432149.126 10 0 59914 44100.00000 0 1737028.953 -23973041.545 8503578.371 10 0 59914 45000.00000 0 1712184.197 -24854932.785 5409577.287 10 0 59914 45900.00000 0 1570940.503 -25348577.422 2210316.774 10 0 59914 46800.00000 0 1367739.368 -25434682.849 -1031957.934 10 0 59914 47700.00000 0 1159611.669 -25107493.075 -4254146.113 10 0 59914 48600.00000 0 1003515.147 -24375045.398 -7393528.777 10 0 59914 49500.00000 0 953675.803 -23258864.591 -10388999.090 10 0 59914 50400.00000 0 1059047.216 -21793107.326 -13182260.776 10 0 59914 51300.00000 0 1360996.832 -20023192.954 -15718970.213 10 0 59914 52200.00000 0 1891318.417 -18003978.602 -17949799.156 10 0 59914 53100.00000 0 2670655.790 -15797555.829 -19831396.848 10 0 59914 54000.00000 0 3707405.280 -13470761.892 -21327232.655 10 0 59914 54900.00000 0 4997143.852 -11092510.373 -22408303.057 10 0 59914 55800.00000 0 6522607.407 -8731053.242 -23053689.653 10 0 59914 56700.00000 0 8254220.499 -6451288.738 -23250958.071 10 0 59914 57600.00000 0 10151155.498 -4312227.074 -22996390.838 10 0 59914 58500.00000 0 12162876.958 -2364718.971 -22295050.491 10 0 59914 59400.00000 0 14231106.784 -649540.567 -21160672.476 10 0 59914 60300.00000 0 16292128.291 804086.949 -19615390.503 10 0 59914 61200.00000 0 18279333.128 1979482.875 -17689300.155 10 0 59914 62100.00000 0 20125905.029 2872958.485 -15419869.478 10 0 59914 63000.00000 0 21767528.713 3493717.547 -12851208.094 10 0 59914 63900.00000 0 23145011.132 3863211.836 -10033209.041 10 0 59914 64800.00000 0 24206705.991 4013980.448 -7020579.937 10 0 59914 65700.00000 0 24910640.591 3988023.147 -3871782.112 10 0 59914 66600.00000 0 25226256.457 3834777.357 -647898.267 10 0 59914 67500.00000 0 25135691.271 3608784.921 2588549.505 10 0 59914 68400.00000 0 24634548.809 3367147.652 5774808.547 10 0 59914 69300.00000 0 23732124.843 3166879.350 8849107.913 10 0 59914 70200.00000 0 22451079.704 3062266.232 11751850.853 10 0 59914 71100.00000 0 20826571.139 3102347.226 14426764.658 10 0 59914 72000.00000 0 18904883.520 3328620.439 16821985.939 10 0 59914 72900.00000 0 16741610.289 3773072.580 18891060.803 10 0 59914 73800.00000 0 14399464.834 4456614.648 20593841.157 10 0 59914 74700.00000 0 11945810.371 5387990.155 21897260.262 10 0 59914 75600.00000 0 9450010.797 6563202.634 22775973.100 10 0 59914 76500.00000 0 6980711.719 7965487.612 23212849.501 10 0 59914 77400.00000 0 4603163.855 9565831.644 23199310.632 10 0 59914 78300.00000 0 2376699.088 11324018.394 22735502.238 10 0 59914 79200.00000 0 352463.295 13190159.775 21830300.869 10 0 59914 80100.00000 0 -1428500.333 15106649.898 20501152.253 10 0 59914 81000.00000 0 -2936738.233 17010461.725 18773744.059 10 0 59914 81900.00000 0 -4155382.000 18835691.720 16681518.255 10 0 59914 82800.00000 0 -5080611.129 20516246.846 14265031.454 10 0 59914 83700.00000 0 -5721563.804 21988561.844 11571174.624 10 0 59914 84600.00000 0 -6099699.712 23194232.807 8652266.468 10 0 59914 85500.00000 0 -6247641.913 24082455.982 5565037.668 10 0 59915 0.00000 0 -6207547.102 24612168.477 2369525.886 10 0 59915 900.00000 0 -6029073.659 24753799.964 -872098.464 10 0 59915 1800.00000 0 -5767034.378 24490559.888 -4096747.758 10 0 59915 2700.00000 0 -5478834.296 23819205.842 -7241655.218 10 0 59915 3600.00000 0 -5221803.398 22750259.098 -10245605.971 10 0 59915 4500.00000 0 -5050538.600 21307657.947 -13050137.649 10 0 59915 5400.00000 0 -5014368.913 19527863.159 -15600685.844 10 0 59915 6300.00000 0 -5155052.388 17458453.113 -17847651.323 10 0 59915 7200.00000 0 -5504803.267 15156267.928 -19747367.622 10 0 59915 8100.00000 0 -6084733.583 12685180.790 -21262950.034 10 0 59915 9000.00000 0 -6903775.528 10113590.166 -22365009.674 10 0 59915 9900.00000 0 -7958130.367 7511738.127 -23032219.108 10 0 59915 10800.00000 0 -9231267.245 4948966.783 -23251719.302 10 0 59915 11700.00000 0 -10694472.036 2491026.998 -23019360.756 10 0 59915 12600.00000 0 -12307923.138 197550.981 -22339774.965 10 0 59915 13500.00000 0 -14022249.134 -1880206.974 -21226275.615 10 0 59915 14400.00000 0 -15780503.123 -3701268.873 -19700592.020 10 0 59915 15300.00000 0 -17520471.127 -5236392.963 -17792440.474 10 0 59915 16200.00000 0 -19177218.149 -6469036.261 -15538942.116 10 0 59915 17100.00000 0 -20685765.607 -7395781.401 -12983898.672 10 0 59915 18000.00000 0 -21983788.281 -8026211.887 -10176940.226 10 0 59915 18900.00000 0 -23014218.228 -8382242.835 -7172561.415 10 0 59915 19800.00000 0 -23727646.885 -8496936.986 -4029064.645 10 0 59915 20700.00000 0 -24084425.003 -8412857.107 -807430.782 10 0 59915 21600.00000 0 -24056372.628 -8180025.268 2429860.908 10 0 59915 22500.00000 0 -23628027.664 -7853575.789 5620040.817 10 0 59915 23400.00000 0 -22797380.699 -7491201.321 8701261.662 10 0 59915 24300.00000 0 -21576065.322 -7150500.063 11613792.491 10 0 59915 25200.00000 0 -19988995.684 -6886336.119 14301171.162 10 0 59915 26100.00000 0 -18073466.150 -6748324.254 16711293.286 10 0 59915 27000.00000 0 -15877750.050 -6778545.039 18797417.041 10 0 59915 27900.00000 0 -13459255.256 -7009586.641 20519064.981 10 0 59915 28800.00000 0 -10882312.554 -7462995.838 21842805.873 10 0 59915 29700.00000 0 -8215687.849 -8148203.823 22742901.977 10 0 59915 30600.00000 0 -5529920.453 -9061972.667 23201809.652 10 0 59915 31500.00000 0 -2894597.018 -10188386.682 23210523.692 10 0 59915 32400.00000 0 -375673.191 -11499390.386 22768758.706 10 0 59915 33300.00000 0 1967046.750 -12955852.059 21884963.593 10 0 59915 34200.00000 0 4082168.328 -14509109.939 20576168.158 10 0 59915 35100.00000 0 5928610.056 -16102937.826 18867663.928 10 0 59915 36000.00000 0 7477072.651 -17675849.138 16792524.261 10 0 59915 36900.00000 0 8711013.162 -19163643.801 14390971.959 10 0 59915 37800.00000 0 9627083.571 -20502091.721 11709605.622 10 0 59915 38700.00000 0 10235015.676 -21629640.318 8800498.922 10 0 59915 39600.00000 0 10556957.288 -22490031.896 5720189.833 10 0 59915 40500.00000 0 10626288.096 -23034719.994 2528579.322 10 0 59915 41400.00000 0 10485965.693 -23224981.869 -712238.875 10 0 59915 42300.00000 0 10186472.384 -23033636.852 -3939193.869 10 0 59915 43200.00000 0 9783450.623 -22446296.857 -7089474.140 10 0 59915 44100.00000 0 9335128.350 -21462095.129 -10101759.752 10 0 59915 45000.00000 0 8899644.505 -20093861.604 -12917425.085 10 0 59915 45900.00000 0 8532389.307 -18367736.805 -15481687.616 10 0 59915 46800.00000 0 8283473.058 -16322240.121 -17744679.561 10 0 59915 47700.00000 0 8195431.602 -14006831.566 -19662420.889 10 0 59915 48600.00000 0 8301266.174 -11480027.440 -21197674.616 10 0 59915 49500.00000 0 8622900.924 -8807148.950 -22320667.884 10 0 59915 50400.00000 0 9170123.365 -6057798.181 -23009665.201 10 0 59915 51300.00000 0 9940052.373 -3303166.810 -23251383.402 10 0 59915 52200.00000 0 10917155.987 -613289.507 -23041241.077 10 0 59915 53100.00000 0 12073817.940 1945643.916 -22383438.415 10 0 59915 54000.00000 0 13371428.922 4313806.654 -21290866.721 10 0 59915 54900.00000 0 14761956.502 6439979.684 -19784849.977 10 0 59915 55800.00000 0 16189927.728 8283431.094 -17894723.954 10 0 59915 56700.00000 0 17594741.202 9815353.426 -15657261.329 10 0 59915 57600.00000 0 18913211.726 11019800.924 -13115954.082 10 0 59915 58500.00000 0 20082240.919 11894089.400 -10320167.155 10 0 59915 59400.00000 0 21041501.949 12448643.922 -7324179.709 10 0 59915 60300.00000 0 21736025.927 12706302.462 -4186132.452 10 0 59915 61200.00000 0 22118581.599 12701106.235 -966901.429 10 0 59915 62100.00000 0 22151748.593 12476628.901 2271080.035 10 0 59915 63000.00000 0 21809597.240 12083915.938 5465028.522 10 0 59915 63900.00000 0 21078904.485 11579121.625 8553023.471 10 0 59915 64800.00000 0 19959854.650 11020943.644 11475202.618 10 0 59915 65700.00000 0 18466195.381 10467963.564 14174917.056 10 0 59915 66600.00000 0 16624841.701 9976005.255 16599823.802 10 0 59915 67500.00000 0 14474944.015 9595622.356 18702895.239 10 0 59915 68400.00000 0 12066458.023 9369820.420 20443326.423 10 0 59915 69300.00000 0 9458275.141 9332109.480 21787323.192 10 0 59915 70200.00000 0 6715990.008 9504968.949 22708756.374 10 0 59915 71100.00000 0 3909396.577 9898789.666 23189669.821 10 0 59915 72000.00000 0 1109815.567 10511338.076 23220632.584 10 0 59915 72900.00000 0 -1612637.073 11327765.885 22800928.378 10 0 59915 73800.00000 0 -4191728.493 12321165.938 21938578.265 10 0 59915 74700.00000 0 -6567623.709 13453652.263 20650195.491 10 0 59915 75600.00000 0 -8689133.140 14677920.363 18960674.347 10 0 59915 76500.00000 0 -10515599.946 15939223.536 16902718.047 10 0 59915 77400.00000 0 -12018348.769 17177683.292 14516213.655 10 0 59915 78300.00000 0 -13181635.655 18330837.495 11847465.154 10 0 59915 79200.00000 0 -14003059.496 19336319.330 8948298.679 10 0 59915 80100.00000 0 -14493417.844 20134554.125 5875056.797 10 0 59915 81000.00000 0 -14676013.419 20671359.775 2687501.236 10 0 59915 81900.00000 0 -14585440.918 20900340.083 -552354.444 10 0 59915 82800.00000 0 -14265905.875 20784968.779 -3781458.783 10 0 59915 83700.00000 0 -13769147.510 20300274.866 -6936958.494 10 0 59915 84600.00000 0 -13152054.402 19434056.795 -9957431.507 10 0 59915 85500.00000 0 -12474075.084 18187573.001 -12784091.758 10 0 59916 0.00000 0 -11794534.420 16575678.879 -15361941.004 10 0 59916 900.00000 0 -11169970.121 14626402.735 -17640845.750 10 0 59916 1800.00000 0 -10651603.937 12379980.382 -19576514.241 10 0 59916 2700.00000 0 -10283053.912 9887385.778 -21131358.997 10 0 59916 3600.00000 0 -10098385.625 7208421.283 -22275224.650 10 0 59916 4500.00000 0 -10120584.388 4409446.687 -22985968.781 10 0 59916 5400.00000 0 -10360512.644 1560841.879 -23249884.892 10 0 59916 6300.00000 0 -10816396.070 -1265691.238 -23061960.099 10 0 59916 7200.00000 0 -11473859.448 -3999875.527 -22425963.339 10 0 59916 8100.00000 0 -12306510.190 -6575540.486 -21354363.187 10 0 59916 9000.00000 0 -13277044.446 -8933128.638 -19868077.528 10 0 59916 9900.00000 0 -14338828.819 -11021923.278 -17996060.423 10 0 59916 10800.00000 0 -15437890.900 -12801906.401 -15774734.526 10 0 59916 11700.00000 0 -16515234.810 -14245171.045 -13247280.159 10 0 59916 12600.00000 0 -17509384.337 -15336830.841 -10462794.931 10 0 59916 13500.00000 0 -18359046.841 -16075390.593 -7475340.108 10 0 59916 14400.00000 0 -19005786.007 -16472564.108 -4342892.106 10 0 59916 15300.00000 0 -19396591.158 -16552548.459 -1126219.411 10 0 59916 16200.00000 0 -19486235.202 -16350786.537 2112293.444 10 0 59916 17100.00000 0 -19239322.051 -15912270.993 5309852.160 10 0 59916 18000.00000 0 -18631937.399 -15289461.743 8404465.890 10 0 59916 18900.00000 0 -17652833.297 -14539905.191 11336144.064 10 0 59916 19800.00000 0 -16304096.353 -13723655.663 14048053.951 10 0 59916 20700.00000 0 -14601271.030 -12900607.592 16487616.783 10 0 59916 21600.00000 0 -12572931.984 -12127850.561 18607521.726 10 0 59916 22500.00000 0 -10259722.306 -11457158.167 20366638.608 10 0 59916 23400.00000 0 -7712896.585 -10932715.958 21730812.243 10 0 59916 24300.00000 0 -4992428.090 -10589183.666 22673523.511 10 0 59916 25200.00000 0 -2164757.289 -10450173.005 23176404.814 10 0 59916 26100.00000 0 699726.162 -10527205.046 23229600.090 10 0 59916 27000.00000 0 3529364.928 -10819191.332 22831962.382 10 0 59916 27900.00000 0 6253969.046 -11312461.131 21991084.771 10 0 59916 28800.00000 0 8807492.052 -11981334.590 20723163.433 10 0 59916 29700.00000 0 11130537.916 -12789218.741 19052694.587 10 0 59916 30600.00000 0 13172595.234 -13690181.376 17012010.118 10 0 59916 31500.00000 0 14893905.883 -14630937.587 14640659.810 10 0 59916 32400.00000 0 16266890.407 -15553166.094 11984651.108 10 0 59916 33300.00000 0 17277070.580 -16396058.190 9095560.294 10 0 59916 34200.00000 0 17923450.406 -17098991.795 6029531.853 10 0 59916 35100.00000 0 18218339.682 -17604217.324 2846185.253 10 0 59916 36000.00000 0 18186627.678 -17859441.071 -392549.379 10 0 59916 36900.00000 0 17864537.951 -17820195.786 -3623643.414 10 0 59916 37800.00000 0 17297917.473 -17451896.852 -6784205.224 10 0 59916 38700.00000 0 16540133.202 -16731495.715 -9812713.947 10 0 59916 39600.00000 0 15649666.044 -15648659.303 -12650226.252 10 0 59916 40500.00000 0 14687505.075 -14206424.442 -15241531.555 10 0 59916 41400.00000 0 13714453.273 -12421298.583 -17536232.355 10 0 59916 42300.00000 0 12788459.613 -10322801.931 -19489727.971 10 0 59916 43200.00000 0 11962090.920 -7952469.644 -21064082.344 10 0 59916 44100.00000 0 11280250.554 -5362355.633 -22228759.093 10 0 59916 45000.00000 0 10778240.218 -2613100.459 -22961209.925 10 0 59916 45900.00000 0 10480246.207 228356.124 -23247305.607 10 0 59916 46800.00000 0 10398313.243 3091322.788 -23081601.931 10 0 59916 47700.00000 0 10531848.275 5904058.534 -22467436.309 10 0 59916 48600.00000 0 10867674.150 8596517.008 -21416853.928 10 0 59916 49500.00000 0 11380629.989 11103019.845 -19950365.562 10 0 59916 50400.00000 0 12034692.118 13364748.767 -18096542.228 10 0 59916 51300.00000 0 12784567.701 15331954.001 -15891454.904 10 0 59916 52200.00000 0 13577693.494 16965788.491 -13377970.303 10 0 59916 53100.00000 0 14356555.221 18239692.878 -10604916.445 10 0 59916 54000.00000 0 15061229.753 19140275.123 -7626134.160 10 0 59916 54900.00000 0 15632042.968 19667649.566 -4499432.773 10 0 59916 55800.00000 0 16012231.348 19835222.711 -1285470.219 10 0 59916 56700.00000 0 16150495.240 19668936.084 1953420.874 10 0 59916 57600.00000 0 16003336.260 19205999.105 5154438.464 10 0 59916 58500.00000 0 15537080.344 18493166.053 8255524.473 10 0 59916 59400.00000 0 14729501.149 17584630.166 11196562.922 10 0 59916 60300.00000 0 13570975.124 16539623.745 13920539.933 10 0 59916 61200.00000 0 12065119.211 15419825.195 16374643.365 10 0 59916 62100.00000 0 10228883.583 14286681.828 18511281.304 10 0 59916 63000.00000 0 8092094.397 13198760.552 20289000.208 10 0 59916 63900.00000 0 5696464.453 12209237.233 21673285.427 10 0 59916 64800.00000 0 3094111.453 11363629.655 22637229.157 10 0 59916 65700.00000 0 345643.919 10697868.728 23162053.296 10 0 59916 66600.00000 0 -2482107.223 10236788.614 23237477.268 10 0 59916 67500.00000 0 -5318618.864 9993098.998 22861923.657 10 0 59916 68400.00000 0 -8092364.173 9966882.793 22042557.359 10 0 59916 69300.00000 0 -10733548.952 10145640.794 20795156.832 10 0 59916 70200.00000 0 -13176783.243 10504881.979 19143819.108 10 0 59916 71100.00000 0 -15363577.920 11009235.434 17120503.194 10 0 59916 72000.00000 0 -17244562.628 11614037.837 14764419.641 10 0 59916 72900.00000 0 -18781332.808 12267330.291 12121277.079 10 0 59916 73800.00000 0 -19947848.563 12912180.710 9242399.405 10 0 59916 74700.00000 0 -20731326.585 13489233.805 6183730.313 10 0 59916 75600.00000 0 -21132587.584 13939380.621 3004744.214 10 0 59916 76500.00000 0 -21165844.535 14206434.019 -232715.057 10 0 59916 77400.00000 0 -20857940.728 14239695.882 -3465644.574 10 0 59916 78300.00000 0 -20247070.126 13996306.070 -6631117.240 10 0 59916 79200.00000 0 -19381034.615 13443272.259 -9667516.234 10 0 59916 80100.00000 0 -18315112.587 12559093.343 -12515743.701 10 0 59916 81000.00000 0 -17109629.855 11334906.393 -15120379.099 10 0 59916 81900.00000 0 -15827336.520 9775107.517 -17430763.777 10 0 59916 82800.00000 0 -14530701.475 7897419.492 -19401989.995 10 0 59916 83700.00000 0 -13279239.429 5732402.563 -20995774.889 10 0 59916 84600.00000 0 -12126983.551 3322428.365 -22181202.487 10 0 59916 85500.00000 0 -11120210.299 720159.669 -22935319.655 99